Regional Weather Roundup
Issued by NWS

Home | Current Version | Previous Version | Graphics & Text | Print | Product List | Glossary On
Versions: 1 2 3 4 5 6 7 8 9 10 11 12 13 14 15 16 17 18 19 20 21 22 23 24 25 26 27 28 29 30 31 32 33 34 35 36 37 38 39 40 41 42 43 44 45 46 47 48 49 50
273
ASUS44 KLIX 281201
RWRLA
LOUISIANA WEATHER ROUNDUP
NATIONAL WEATHER SERVICE NEW ORLEANS LA
700 AM CDT MON JUL 28 2014

NOTE: "FAIR" INDICATES FEW OR NO CLOUDS BELOW 12,000 FEET WITH NO
      SIGNIFICANT WEATHER AND/OR OBSTRUCTIONS TO VISIBILITY.
      SKY/WX - SKY CONDITION AND SIGNIFICANT WEATHER.
      TMP - AIR TEMPERATURE.    DP   - DEWPOINT TEMPERATURE.
      RH  - RELATIVE HUMIDITY.  PRES - PRESSURE.
      HX  - HEAT INDEX.         WCI  - WIND CHILL INDEX.

*  THESE STATIONS ARE NOT NWS OR FAA STATIONS AND ARE NOT UNDER
   NWS QUALITY CONTROL.

LAZ040-048-061>063-065-066-069-281300-
SOUTHEAST LOUISIANA

CITY           SKY/WX    TMP DP  RH WIND       PRES   REMARKS
N.O. AUDUBON     N/A     82  76  82 MISG        N/A
6HR MIN TEMP:  79; 6HR MAX TEMP:  83;

N.O. INTL ARPT PTCLDY    80  76  87 W5        30.08R
6HR MIN TEMP:  79; 6HR MAX TEMP:  81;

N.O. LAKEFRONT CLEAR     83  77  82 W21       30.08R
6HR MIN TEMP:  83; 6HR MAX TEMP:  84;

N.O. DOWNTOWN* FAIR      82  73  74 CALM      30.09R
6HR MIN TEMP:  81; 6HR MAX TEMP:  82;

SLIDELL        CLEAR     80  75  84 CALM      30.07R
6HR MIN TEMP:  79; 6HR MAX TEMP:  83;

BATON ROUGE    CLEAR     78  75  90 W7        30.08R
6HR MIN TEMP:  77; 6HR MAX TEMP:  80;

BOOTHVILLE     PTCLDY    82  78  88 W6        30.08R
6HR MIN TEMP:  82; 6HR MAX TEMP:  84;

BELLE CHASSE   MOCLDY    80  75  84 W3        30.08R
6HR MIN TEMP:  79; 6HR MAX TEMP:  82;

BOGALUSA*      FAIR      79  74  85 CALM      30.08R
6HR MIN TEMP:  79; 6HR MAX TEMP:  81;

GALLIANO*      NOT AVBL
NEW ROADS*     FAIR      75  74  96 CALM      30.09R FOG
6HR MIN TEMP:  75; 6HR MAX TEMP:  79;

GONZALES*      FAIR      79  78  98 CALM      30.08R
6HR MIN TEMP:  78; 6HR MAX TEMP:  80;

HAMMOND*       CLEAR     79  73  83 CALM      30.09R
HOUMA*         PTCLDY    81  73  78 CALM      30.09R
PORT FOURCHON* MOSUNNY   84  75  74 W9G16     30.10R

$$

LAZ041-044-053-054-281300-
SOUTHWEST LOUISIANA

CITY           SKY/WX    TMP DP  RH WIND       PRES   REMARKS
LAKE CHARLES   CLEAR     79  76  90 CALM      30.08R FOG
6HR MIN TEMP:  78; 6HR MAX TEMP:  81;

LAFAYETTE      CLEAR     80  76  87 W5        30.08R
6HR MIN TEMP:  79; 6HR MAX TEMP:  81;

PATTERSON      PTCLDY    77  75  94 CALM      30.12S
6HR MIN TEMP:  75; 6HR MAX TEMP:  79;

SALT POINT       N/A     86  77  74 VRB5      30.08R HX  97
6HR MIN TEMP:  86; 6HR MAX TEMP:  87;

NEW IBERIA     CLEAR     77  75  93 CALM      30.09R FOG
6HR MIN TEMP:  76; 6HR MAX TEMP:  79;

CHENAULT AIRPK NOT AVBL

$$

LAZ027-028-281300-
CENTRAL LOUISIANA

CITY           SKY/WX    TMP DP  RH WIND       PRES   REMARKS
FORT POLK      PTCLDY    77  76  96 W5        30.08S
6HR MIN TEMP:  76; 6HR MAX TEMP:  79;

ALEXANDRIA INT CLEAR     77  75  93 VRB3      30.06R FOG
6HR MIN TEMP:  76; 6HR MAX TEMP:  80;

ALEXANDRIA     CLEAR     79  75  87 W6        30.07R
6HR MIN TEMP:  79; 6HR MAX TEMP:  81;


$$

LAZ001-002-281300-
NORTHWEST LOUISIANA

CITY           SKY/WX    TMP DP  RH WIND       PRES   REMARKS
SHREVEPORT     MOCLDY    79  74  84 W6        30.06R THUNDER
6HR MIN TEMP:  78; 6HR MAX TEMP:  81;

BARKSDALE AFB  MOCLDY    81  73  78 N14       30.09R
6HR MIN TEMP:  77; 6HR MAX TEMP:  83;

DTN SHREVEPORT MOCLDY    79  73  82 N10       30.08R
6HR MIN TEMP:  79; 6HR MAX TEMP:  83;


$$

LAZ014-016-281300-
NORTHEAST LOUISIANA

CITY           SKY/WX    TMP DP  RH WIND       PRES   REMARKS
MONROE         LGT RAIN  79  71  76 N10       30.09R
6HR MIN TEMP:  78; 6HR MAX TEMP:  83; 6HR PCP: TRACE;

TALLULAH       CLOUDY    78  75  90 NW5       30.07R
6HR MIN TEMP:  74; 6HR MAX TEMP:  78;


$$




USA.gov is the U.S. government's official web portal to all federal, state and local government web resources and services.